Date String (YYYY-MM-DD hh:mm:ss) UTC,Instrument flags,Ambient pressure (hPa),Sample flow (lpm),Bypass flow (lpm),Sample temperature (°C),Ambient temperature (°C),ASC tube jacket temperature (°C),LED temperature (°C),Box temperature (°C),Sample RH (%),Span deviation,Mass concentration (μg/m³),Mass concentration (μg/m³),Mass concentration (μg/m³)
DateTimeUTC,F1_M11,P_M11,Q1_M11,Q2_M11,T1_M11,T2_M11,T3_M11,T4_M11,T5_M11,U1_M11,ZSPAN_M11,X0_M11,X2_M11,X1_M11
2022-04-23 01:00:00,,0806.5,5.02,0.00,29.2,28.3,00.0,38.3,31.0,12.6,0000.0,0021.89,0003.63,0001.02
2022-04-23 01:01:00,,0806.6,4.99,0.00,29.3,28.3,00.0,38.3,31.0,12.6,0000.0,0021.59,0003.61,0000.98
2022-04-23 01:02:00,,0806.2,5.00,0.00,29.2,28.3,00.0,38.3,31.0,12.6,0000.0,0020.51,0003.54,0000.95
2022-04-23 01:03:00,,0806.2,5.00,0.00,29.3,28.3,00.0,38.3,31.0,12.5,0000.0,0020.28,0003.43,0000.92
2022-04-23 01:04:00,,0806.1,5.00,0.00,29.3,28.2,00.0,38.3,31.1,12.3,0000.0,0020.38,0003.32,0000.88
2022-04-23 01:05:00,,0806.1,5.00,0.00,29.3,28.2,00.0,38.3,31.1,12.3,0000.0,0020.08,0003.23,0000.85
2022-04-23 01:06:00,,0806.1,5.01,0.00,29.3,28.2,00.0,38.3,31.1,12.4,0000.0,0018.09,0003.16,0000.81
2022-04-23 01:07:00,,0806.1,5.00,0.00,29.3,28.2,00.0,38.3,31.1,12.2,0000.0,0016.34,0003.03,0000.76
2022-04-23 01:08:00,,0806.0,4.99,0.00,29.3,28.2,00.0,38.3,31.1,12.1,0000.0,0016.07,0002.92,0000.70
2022-04-23 01:09:00,,0806.3,5.01,0.00,29.3,28.1,00.0,38.3,31.1,12.3,0000.0,0017.54,0002.79,0000.64
2022-04-23 01:10:00,,0806.4,5.00,0.00,29.3,28.1,00.0,38.3,31.0,12.2,0000.0,0017.60,0002.60,0000.59
2022-04-23 01:11:00,,0806.4,4.99,0.00,29.3,28.1,00.0,38.3,31.0,12.1,0000.0,0015.60,0002.33,0000.54
2022-04-23 01:12:00,,0806.4,5.00,0.00,29.2,28.1,00.0,38.3,31.0,12.0,0000.0,0014.87,0002.13,0000.48
2022-04-23 01:13:00,,0806.4,5.01,0.00,29.2,28.1,00.0,38.3,31.0,11.8,0000.0,0015.16,0001.97,0000.44
2022-04-23 01:14:00,,0806.3,5.00,0.00,29.2,28.1,00.0,38.3,31.0,11.8,0000.0,0015.39,0001.81,0000.39
2022-04-23 01:15:00,,0806.1,5.00,0.00,29.2,28.1,00.0,38.3,31.0,11.6,0000.0,0015.23,0001.74,0000.35
2022-04-23 01:16:00,,0806.1,5.02,0.00,29.2,28.1,00.0,38.2,31.0,11.5,0000.0,0015.04,0001.61,0000.31
2022-04-23 01:17:00,,0806.0,4.99,0.00,29.2,28.1,00.0,38.2,30.9,11.5,0000.0,0014.96,0001.49,0000.28
2022-04-23 01:18:00,,0806.1,5.01,0.00,29.2,28.0,00.0,38.2,30.9,11.5,0000.0,0014.91,0001.36,0000.25
2022-04-23 01:19:00,,0806.0,4.99,0.00,29.2,28.0,00.0,38.2,30.9,11.5,0000.0,0014.43,0001.24,0000.22
2022-04-23 01:20:00,,0806.0,5.00,0.00,29.2,28.0,00.0,38.2,30.9,11.5,0000.0,0012.24,0001.19,0000.21
2022-04-23 01:21:00,,0805.9,4.98,0.00,29.2,28.0,00.0,38.2,30.9,11.5,0000.0,0011.58,0001.27,0000.20
2022-04-23 01:22:00,,0805.8,5.02,0.00,29.2,27.9,00.0,38.2,30.9,11.4,0000.0,0012.15,0001.32,0000.19
2022-04-23 01:23:00,,0805.9,5.00,0.00,29.1,27.9,00.0,38.2,30.9,11.3,0000.0,0012.38,0001.33,0000.19
2022-04-23 01:24:00,,0805.8,5.00,0.00,29.1,27.9,00.0,38.2,30.9,11.4,0000.0,0011.66,0001.34,0000.19
2022-04-23 01:25:00,,0805.8,5.02,0.00,29.1,27.9,00.0,38.2,30.8,11.3,0000.0,0011.97,0001.36,0000.19
2022-04-23 01:26:00,,0806.0,4.98,0.00,29.1,27.8,00.0,38.2,30.8,11.3,0000.0,0011.76,0001.43,0000.21
2022-04-23 01:27:00,,0806.3,5.01,0.00,29.1,27.8,00.0,38.2,30.8,11.4,0000.0,0011.47,0001.44,0000.21
2022-04-23 01:28:00,,0806.6,4.99,0.00,29.1,27.9,00.0,38.1,30.8,11.4,0000.0,0011.22,0001.38,0000.22
2022-04-23 01:29:00,,0806.5,5.01,0.00,29.1,27.9,00.0,38.1,30.8,11.4,0000.0,0011.16,0001.47,0000.23
2022-04-23 01:30:00,,0806.2,4.99,0.00,29.0,27.8,00.0,38.1,30.8,11.3,0000.0,0011.60,0001.69,0000.24
2022-04-23 01:31:00,,0806.4,5.01,0.00,29.0,27.8,00.0,38.1,30.8,11.2,0000.0,0012.96,0001.90,0000.26
2022-04-23 01:32:00,,0806.4,5.00,0.00,29.0,27.8,00.0,38.1,30.8,11.1,0000.0,0012.97,0002.02,0000.28
2022-04-23 01:33:00,,0806.3,5.01,0.00,29.0,27.8,00.0,38.1,30.7,11.1,0000.0,0012.70,0002.16,0000.29
2022-04-23 01:34:00,,0806.3,5.00,0.00,29.0,27.7,00.0,38.1,30.7,11.0,0000.0,0013.47,0002.37,0000.31
2022-04-23 01:35:00,,0806.2,5.01,0.00,29.0,27.7,00.0,38.1,30.7,10.9,0000.0,0014.93,0002.63,0000.35
2022-04-23 01:36:00,,0806.3,5.00,0.00,29.0,27.7,00.0,38.0,30.7,10.9,0000.0,0015.95,0002.93,0000.40
2022-04-23 01:37:00,,0806.1,4.99,0.00,28.9,27.6,00.0,38.0,30.6,10.7,0000.0,0016.99,0003.15,0000.42
2022-04-23 01:38:00,,0806.0,5.00,0.00,28.9,27.6,00.0,38.0,30.6,10.6,0000.0,0018.62,0003.26,0000.45
2022-04-23 01:39:00,,0805.8,5.00,0.00,28.9,27.5,00.0,38.0,30.6,10.6,0000.0,0023.39,0003.52,0000.49
2022-04-23 01:40:00,,0805.7,4.98,0.00,28.9,27.5,00.0,38.0,30.5,10.5,0000.0,0026.02,0003.82,0000.55
2022-04-23 01:41:00,,0805.7,4.98,0.00,28.8,27.4,00.0,37.9,30.5,10.4,0000.0,0028.36,0004.08,0000.59
2022-04-23 01:42:00,,0805.9,4.99,0.00,28.8,27.4,00.0,37.9,30.5,10.5,0000.0,0042.53,0004.38,0000.63
2022-04-23 01:43:00,,0806.1,5.00,0.00,28.8,27.4,00.0,37.9,30.5,10.5,0000.0,0047.27,0004.56,0000.67
2022-04-23 01:44:00,,0806.2,5.00,0.00,28.8,27.4,00.0,37.9,30.5,10.5,0000.0,0051.00,0004.73,0000.72
2022-04-23 01:45:00,,0806.1,5.02,0.00,28.8,27.4,00.0,37.9,30.4,10.4,0000.0,0054.55,0004.95,0000.76
2022-04-23 01:46:00,,0806.3,4.98,0.00,28.7,27.4,00.0,37.8,30.4,10.4,0000.0,0063.23,0005.19,0000.79
2022-04-23 01:47:00,,0806.2,5.00,0.00,28.7,27.4,00.0,37.8,30.4,10.4,0000.0,0063.65,0005.20,0000.77
2022-04-23 01:48:00,,0806.1,5.00,0.00,28.7,27.3,00.0,37.8,30.4,10.4,0000.0,0065.38,0005.21,0000.77
2022-04-23 01:49:00,,0806.1,5.02,0.00,28.7,27.3,00.0,37.8,30.4,10.3,0000.0,0066.66,0005.35,0000.77
2022-04-23 01:50:00,,0805.9,5.00,0.00,28.7,27.3,00.0,37.8,30.4,10.2,0000.0,0064.72,0005.35,0000.78
2022-04-23 01:51:00,,0805.8,5.01,0.00,28.6,27.3,00.0,37.7,30.3,10.3,0000.0,0063.20,0005.28,0000.77
2022-04-23 01:52:00,,0805.9,5.00,0.00,28.6,27.3,00.0,37.7,30.3,10.3,0000.0,0062.78,0005.14,0000.78
2022-04-23 01:53:00,,0805.7,4.99,0.00,28.6,27.3,00.0,37.7,30.2,10.3,0000.0,0053.49,0004.94,0000.78
2022-04-23 01:54:00,,0805.5,5.01,0.00,28.6,27.3,00.0,37.7,30.2,10.2,0000.0,0045.97,0004.81,0000.76
2022-04-23 01:55:00,,0805.3,5.00,0.00,28.5,27.2,00.0,37.7,30.2,10.1,0000.0,0043.18,0004.75,0000.74
2022-04-23 01:56:00,,0805.3,5.00,0.00,28.5,27.2,00.0,37.6,30.2,10.0,0000.0,0041.79,0004.66,0000.72
2022-04-23 01:57:00,,0805.4,5.02,0.00,28.5,27.1,00.0,37.6,30.2,09.9,0000.0,0034.64,0004.49,0000.70
2022-04-23 01:58:00,,0805.5,4.99,0.00,28.5,27.1,00.0,37.6,30.2,09.9,0000.0,0033.69,0004.56,0000.74
2022-04-23 01:59:00,,0805.8,5.02,0.00,28.5,27.0,00.0,37.6,30.2,09.8,0000.0,0033.44,0004.74,0000.78
